Little Rock AFB, AR

6:21 AM CST on December 15, 2017 (GMT -0600)
Little Rock Air Force Base

Weather History for KLRF - March, 2013

Change the Weather History Date:

Friday, March 8, 2013

  Actual Average Record
Temperature  
Mean Temperature 46 °F -  
Max Temperature 61 °F 63 °F 81 °F (1974)
Min Temperature 32 °F 40 °F 22 °F (2008)
Degree Days  
Heating Degree Days 18    
Moisture  
Dew Point 35 °F    
Average Humidity 61    
Maximum Humidity 90    
Minimum Humidity 37    
Precipitation  
Precipitation 0.00 in - - ()
Sea Level Pressure  
Sea Level Pressure 30.27 in    
Wind  
Wind Speed 5 mph (East)    
Max Wind Speed 10 mph    
Max Gust Speed -    
Visibility 10 miles    
Events Rain    
Averages and records for this station are not official NWS values.
T = Trace of Precipitation, MM = Missing Value Source: NWS Daily Summary

Daily Weather History Graph

Daily Weather History Graph

Search for Another Location

Airport or City:

Trip Planner

Search our weather history database for the weather conditions in past years. The results will help you decide how hot, cold, wet, or windy it might be!

Date:

Astronomy

Mar. 08, 2013 Rise Set
Actual Time 6:28 AM CST 6:10 PM CST
Civil Twilight 6:03 AM CST 6:35 PM CST
Nautical Twilight 5:33 AM CST 7:05 PM CST
Astronomical Twilight 5:04 AM CST 7:34 PM CST
Moon 4:06 AM CST (3/8) 3:11 PM CST (3/8)
Length of Visible Light 12h 32m
Length of Day
11h 42m
Waning Crescent, 11% of the Moon is Illuminated
Mar 8
Waning Crescent
Mar 11
New
Mar 19
First Quarter
Mar 27
Full
Apr 2
Last Quarter

Hourly Weather History & Observations

Time (CST) Temp. Windchill Dew Point Humidity Pressure Visibility Wind Dir Wind Speed Gust Speed Precip Events Conditions
12:58 AM 35.6 °F - 32.0 °F 87% 30.32 in 10.0 mi ENE 1.2 mph - N/A   Clear
1:58 AM 35.4 °F - 31.5 °F 85% 30.32 in 10.0 mi ENE 2.3 mph - N/A   Clear
2:58 AM 35.4 °F 31.5 °F 31.6 °F 86% 30.30 in 10.0 mi ENE 4.6 mph - N/A   Clear
3:58 AM 35.2 °F 30.3 °F 31.6 °F 87% 30.30 in 10.0 mi ENE 5.8 mph - N/A   Clear
4:58 AM 36.0 °F - 31.6 °F 84% 30.33 in 10.0 mi NE 2.3 mph - N/A   Clear
5:58 AM 33.4 °F - 30.4 °F 89% 30.35 in 10.0 mi North - - N/A   Clear
6:58 AM 32.9 °F - 30.4 °F 90% 30.37 in 10.0 mi East 2.3 mph - N/A   Partly Cloudy
7:58 AM 40.1 °F 34.1 °F 33.6 °F 78% 30.36 in 10.0 mi ENE 9.2 mph - N/A   Clear
8:58 AM 45.5 °F - 33.4 °F 63% 30.38 in 10.0 mi East 2.3 mph - N/A   Clear
9:58 AM 50.4 °F - 33.4 °F 52% 30.38 in 10.0 mi ESE 4.6 mph - N/A   Clear
10:58 AM 53.6 °F - 33.4 °F 46% 30.35 in 10.0 mi SE 8.1 mph - N/A   Clear
11:58 AM 57.7 °F - 35.1 °F 43% 30.33 in 10.0 mi Variable 6.9 mph - N/A   Clear
12:58 PM 58.8 °F - 33.8 °F 39% 30.31 in 10.0 mi East 8.1 mph - N/A   Clear
1:58 PM 61.0 °F - 34.7 °F 37% 30.28 in 10.0 mi East 6.9 mph - N/A   Clear
2:58 PM 59.2 °F - 35.2 °F 41% 30.25 in 10.0 mi ESE 6.9 mph - N/A   Scattered Clouds
3:58 PM 59.4 °F - 35.6 °F 41% 30.22 in 10.0 mi East 10.4 mph - N/A   Mostly Cloudy
4:58 PM 57.9 °F - 35.8 °F 44% 30.21 in 10.0 mi East 8.1 mph - N/A   Mostly Cloudy
5:58 PM 56.8 °F - 34.3 °F 43% 30.20 in 10.0 mi East 5.8 mph - N/A   Overcast
6:58 PM 55.4 °F - 36.9 °F 50% 30.22 in 10.0 mi East 6.9 mph - N/A   Mostly Cloudy
7:58 PM 54.1 °F - 37.4 °F 53% 30.21 in 10.0 mi ENE 6.9 mph - N/A   Partly Cloudy
8:58 PM 53.1 °F - 38.1 °F 57% 30.22 in 10.0 mi ENE 2.3 mph - N/A   Partly Cloudy
9:28 PM 53.6 °F - 37.4 °F 54% 30.21 in 10.0 mi East 3.5 mph - N/A Rain Light Rain
9:39 PM 51.8 °F - 39.2 °F 62% 30.20 in 10.0 mi East 4.6 mph - N/A   Partly Cloudy
9:43 PM 51.8 °F - 41.0 °F 67% 30.20 in 10.0 mi East 5.8 mph - N/A   Light Drizzle
9:56 PM 51.8 °F - 39.2 °F 62% 30.19 in 10.0 mi East 5.8 mph - N/A   Scattered Clouds
9:58 PM 52.2 °F - 39.7 °F 63% 30.20 in 10.0 mi East 5.8 mph - 0.00 in   Scattered Clouds
10:58 PM 52.3 °F - 38.7 °F 60% 30.17 in 10.0 mi East 8.1 mph - 0.00 in   Partly Cloudy
11:58 PM 52.3 °F - 37.8 °F 58% 30.16 in 10.0 mi East 3.5 mph - N/A   Mostly Cloudy